| time (UTC) | temp F | wind direction | speed MPH | gust MPH | rain 1hr in | rain 24hr in | rain mn in | humidity % | barometer mb |
| 20260510104606 | 69 | 26 | 4.0 | 8.0 | 0.00 | 0.00 | 0.00 | 53 | 1009.3 |
| 20260510103053 | 69 | 33 | 3.0 | 6.0 | 0.00 | 0.00 | 0.00 | 56 | 1009.5 |
| 20260510101555 | 70 | 21 | 2.0 | 6.0 | 0.00 | 0.00 | 0.00 | 54 | 1009.7 |
| 20260510100100 | 69 | 30 | 2.0 | 5.0 | 0.00 | 0.00 | 0.00 | 55 | 1009.8 |
| 20260510094557 | 70 | 33 | 1.0 | 4.0 | 0.00 | 0.00 | 0.00 | 55 | 1009.9 |
| 20260510093050 | 68 | 35 | 2.0 | 8.0 | 0.00 | 0.00 | 0.00 | 59 | 1009.9 |
| 20260510091544 | 68 | 22 | 0.0 | 8.0 | 0.00 | 0.00 | 0.00 | 58 | 1010.2 |
| 20260510090043 | 68 | 15 | 1.0 | 6.0 | 0.00 | 0.00 | 0.00 | 57 | 1010.3 |
| 20260510084538 | 67 | 17 | 1.0 | 4.0 | 0.00 | 0.00 | 0.00 | 60 | 1010.4 |
| 20260510083041 | 66 | 17 | 2.0 | 4.0 | 0.00 | 0.00 | 0.00 | 60 | 1010.5 |
| 20260510081632 | 64 | 15 | 2.0 | 5.0 | 0.00 | 0.00 | 0.00 | 62 | 1010.6 |
| 20260510080032 | 63 | 14 | 1.0 | 4.0 | 0.00 | 0.00 | 0.00 | 65 | 1010.7 |
| 20260510074533 | 61 | 14 | 2.0 | 4.0 | 0.00 | 0.00 | 0.00 | 69 | 1010.8 |
| 20260510073020 | 59 | 17 | 1.0 | 3.0 | 0.00 | 0.00 | 0.00 | 73 | 1010.9 |
| 20260510071524 | 57 | 17 | 1.0 | 5.0 | 0.00 | 0.00 | 0.00 | 75 | 1010.9 |
| 20260510070013 | 56 | 11 | 1.0 | 3.0 | 0.00 | 0.00 | 0.00 | 77 | 1010.9 |
| 20260510064510 | 55 | 11 | 1.0 | 3.0 | 0.00 | 0.00 | 0.00 | 79 | 1010.8 |
| 20260510063011 | 54 | 11 | 0.0 | 2.0 | 0.00 | 0.00 | 0.00 | 83 | 1010.7 |
| 20260510061507 | 52 | 11 | 1.0 | 2.0 | 0.00 | 0.00 | 0.00 | 86 | 1010.8 |
| 20260510060004 | 50 | 11 | 0.0 | 2.0 | 0.00 | 0.00 | 0.00 | 87 | 1010.8 |
| 20260510054502 | 49 | 11 | 1.0 | 2.0 | 0.00 | 0.00 | 0.00 | 87 | 1010.8 |
| 20260510053059 | 49 | 11 | 0.0 | 1.0 | 0.00 | 0.00 | 0.00 | 88 | 1010.8 |
| 20260510051557 | 48 | 11 | 0.0 | 0.0 | 0.00 | 0.00 | 0.00 | 88 | 1010.8 |
| 20260510050053 | 47 | 11 | 0.0 | 0.0 | 0.00 | 0.00 | 0.00 | 88 | 1010.8 |
| 20260510044557 | 46 | 11 | 0.0 | 1.0 | 0.00 | 0.00 | 0.00 | 88 | 1010.8 |
| 20260510043047 | 46 | 11 | 0.0 | 1.0 | 0.00 | 0.00 | 0.00 | 88 | 1010.9 |
| 20260510041550 | 46 | 11 | 1.0 | 3.0 | 0.00 | 0.00 | 0.00 | 88 | 1011.1 |
| 20260510040043 | 46 | 11 | 2.0 | 3.0 | 0.00 | 0.00 | 0.00 | 88 | 1011.0 |
| 20260510034540 | 46 | 11 | 1.0 | 3.0 | 0.00 | 0.00 | 0.00 | 87 | 1011.0 |
| 20260510033048 | 47 | 11 | 1.0 | 2.0 | 0.00 | 0.00 | 0.00 | 86 | 1011.1 |
| 20260510031536 | 47 | 11 | 1.0 | 3.0 | 0.00 | 0.00 | 0.00 | 86 | 1011.2 |
| 20260510030034 | 47 | 11 | 1.0 | 3.0 | 0.00 | 0.00 | 0.00 | 85 | 1011.3 |
| 20260510024532 | 47 | 11 | 2.0 | 3.0 | 0.00 | 0.00 | 0.00 | 84 | 1011.3 |
| 20260510023029 | 48 | 11 | 0.0 | 2.0 | 0.00 | 0.00 | 0.00 | 83 | 1011.4 |
| 20260510021535 | 48 | 11 | 0.0 | 2.0 | 0.00 | 0.00 | 0.00 | 84 | 1011.5 |
| 20260510020029 | 48 | 11 | 0.0 | 3.0 | 0.00 | 0.00 | 0.00 | 83 | 1011.6 |
| 20260510014525 | 49 | 11 | 1.0 | 3.0 | 0.00 | 0.00 | 0.00 | 83 | 1011.6 |
| 20260510011521 | 49 | 14 | 0.0 | 4.0 | 0.00 | 0.00 | 0.00 | 82 | 1011.6 |
| 20260510010020 | 49 | 16 | 1.0 | 4.0 | 0.00 | 0.00 | 0.00 | 82 | 1011.5 |
| 20260510004519 | 50 | 17 | 0.0 | 4.0 | 0.00 | 0.00 | 0.00 | 80 | 1011.5 |
| 20260510003016 | 50 | 34 | 1.0 | 2.0 | 0.00 | 0.00 | 0.00 | 79 | 1011.8 |
| 20260510001520 | 50 | 34 | 2.0 | 3.0 | 0.00 | 0.00 | 0.00 | 80 | 1012.0 |
| 20260510000009 | 51 | 34 | 1.0 | 4.0 | 0.00 | 0.00 | 0.00 | 76 | 1012.0 |
| 20260509234512 | 51 | 40 | 1.0 | 3.0 | 0.00 | 0.00 | 0.00 | 75 | 1012.2 |
| 20260509233005 | 52 | 40 | 1.0 | 3.0 | 0.00 | 0.00 | 0.00 | 73 | 1012.2 |
| 20260509231501 | 53 | 40 | 1.0 | 2.0 | 0.00 | 0.00 | 0.00 | 71 | 1012.3 |
| 20260509230107 | 53 | 40 | 1.0 | 2.0 | 0.00 | 0.00 | 0.00 | 71 | 1012.3 |
| 20260509224556 | 54 | 40 | 1.0 | 2.0 | 0.00 | 0.00 | 0.00 | 67 | 1012.4 |
| 20260509223058 | 55 | 40 | 1.0 | 2.0 | 0.00 | 0.00 | 0.00 | 66 | 1012.5 |
| 20260509221552 | 55 | 40 | 1.0 | 3.0 | 0.00 | 0.00 | 0.00 | 66 | 1012.6 |
| 20260509220059 | 56 | 40 | 1.0 | 3.0 | 0.00 | 0.00 | 0.00 | 64 | 1012.5 |
| 20260509214547 | 57 | 40 | 1.0 | 3.0 | 0.00 | 0.00 | 0.00 | 64 | 1012.7 |
| 20260509213047 | 57 | 40 | 0.0 | 1.0 | 0.00 | 0.00 | 0.00 | 62 | 1012.8 |
| 20260509211546 | 58 | 40 | 0.0 | 2.0 | 0.00 | 0.00 | 0.00 | 61 | 1012.8 |
| 20260509210047 | 58 | 40 | 0.0 | 2.0 | 0.00 | 0.00 | 0.00 | 60 | 1012.9 |
| 20260509204556 | 59 | 40 | 0.0 | 2.0 | 0.00 | 0.00 | 0.00 | 58 | 1012.7 |
| 20260509203044 | 60 | 40 | 0.0 | 0.0 | 0.00 | 0.00 | 0.00 | 57 | 1012.9 |
| 20260509201544 | 60 | 40 | 0.0 | 0.0 | 0.00 | 0.00 | 0.00 | 55 | 1012.9 |
| 20260509200044 | 61 | 40 | 0.0 | 0.0 | 0.00 | 0.00 | 0.00 | 54 | 1012.8 |
| 20260509194545 | 62 | 40 | 0.0 | 0.0 | 0.00 | 0.00 | 0.00 | 53 | 1012.7 |
| 20260509193045 | 63 | 40 | 0.0 | 0.0 | 0.00 | 0.00 | 0.00 | 52 | 1012.5 |
| 20260509191541 | 64 | 40 | 0.0 | 0.0 | 0.00 | 0.00 | 0.00 | 51 | 1012.6 |
| 20260509190041 | 65 | 40 | 0.0 | 2.0 | 0.00 | 0.00 | 0.00 | 51 | 1012.5 |
| 20260509184540 | 65 | 40 | 1.0 | 3.0 | 0.00 | 0.00 | 0.00 | 51 | 1012.4 |
| 20260509183039 | 66 | 40 | 1.0 | 3.0 | 0.00 | 0.00 | 0.00 | 50 | 1012.2 |
| 20260509181539 | 66 | 40 | 1.0 | 3.0 | 0.00 | 0.00 | 0.00 | 48 | 1012.1 |
| 20260509180038 | 66 | 40 | 1.0 | 3.0 | 0.00 | 0.00 | 0.00 | 46 | 1012.0 |
| 20260509174550 | 67 | 40 | 1.0 | 6.0 | 0.00 | 0.00 | 0.00 | 45 | 1011.9 |
| 20260509173043 | 67 | 29 | 2.0 | 5.0 | 0.00 | 0.00 | 0.00 | 45 | 1011.9 |
| 20260509171538 | 67 | 24 | 3.0 | 9.0 | 0.00 | 0.00 | 0.00 | 44 | 1011.8 |
| 20260509170035 | 68 | 61 | 5.0 | 10.0 | 0.00 | 0.00 | 0.00 | 43 | 1011.8 |
| 20260509164535 | 68 | 70 | 4.0 | 9.0 | 0.00 | 0.00 | 0.00 | 44 | 1012.1 |
| 20260509163031 | 68 | 42 | 2.0 | 7.0 | 0.00 | 0.00 | 0.00 | 44 | 1012.2 |
| 20260509161531 | 69 | 58 | 1.0 | 6.0 | 0.00 | 0.00 | 0.00 | 44 | 1012.4 |
| 20260509160031 | 69 | 58 | 3.0 | 6.0 | 0.00 | 0.00 | 0.00 | 43 | 1012.4 |
| 20260509154533 | 70 | 44 | 5.0 | 10.0 | 0.00 | 0.00 | 0.00 | 41 | 1012.4 |
| 20260509153029 | 71 | 67 | 3.0 | 6.0 | 0.00 | 0.00 | 0.00 | 40 | 1012.5 |
| 20260509151523 | 71 | 45 | 3.0 | 6.0 | 0.00 | 0.00 | 0.00 | 41 | 1012.6 |
| 20260509150022 | 71 | 57 | 1.0 | 9.0 | 0.00 | 0.00 | 0.00 | 41 | 1012.8 |
| 20260509144523 | 71 | 66 | 2.0 | 6.0 | 0.00 | 0.00 | 0.00 | 39 | 1012.9 |
| 20260509143021 | 71 | 128 | 3.0 | 7.0 | 0.00 | 0.00 | 0.00 | 39 | 1013.1 |
| 20260509134511 | 73 | 47 | 5.0 | 12.0 | 0.00 | 0.00 | 0.00 | 38 | 1013.5 |
| 20260509133009 | 74 | 28 | 4.0 | 10.0 | 0.00 | 0.00 | 0.00 | 37 | 1013.6 |
| 20260509131510 | 73 | 26 | 3.0 | 10.0 | 0.00 | 0.00 | 0.00 | 38 | 1013.8 |
| 20260509124537 | 73 | 45 | 4.0 | 9.0 | 0.00 | 0.00 | 0.00 | 38 | 1014.2 |
| 20260509121536 | 72 | 36 | 4.0 | 9.0 | 0.00 | 0.00 | 0.00 | 40 | 1014.5 |
| 20260509120023 | 70 | 15 | 3.0 | 9.0 | 0.00 | 0.00 | 0.00 | 41 | 1014.7 |
| 20260509111501 | 72 | 44 | 4.0 | 11.0 | 0.00 | 0.00 | 0.00 | 42 | 1015.1 |
| 20260509110100 | 71 | 51 | 5.0 | 9.0 | 0.00 | 0.00 | 0.00 | 43 | 1015.3 |